Tacoma, WA
on Wednesday, December 12, 2012

Wednesday
Previous Day Next Day
Daily Summary
 ActualAverage (KSEA)Record (KSEA)
Temperature
Mean Temperature °F 40°F  
Max Temperature 46°F 46°F 60°F (1960)
Min Temperature 35°F 35°F 22°F (1972)
Degree Days
Heating Degree Days 24 25  
Month to date heating degree days 285  
Since 1 July heating degree days 1468  
Cooling Degree Days 0 0  
Month to date cooling degree days 0  
Year to date cooling degree days 189  
Moisture
Dew Point 38°F   
Average Humidity 92    
Maximum Humidity 100    
Minimum Humidity 71    
Precipitation
Precipitation 0.00 in 0.16 in 2.19 in (2010)
Month to date precipitation 2.20  
Year to date precipitation 34.34  
Snow
Snow 0.00 in in 2.60 in (1975)
Month to date snowfall  
Since 1 July snowfall  
Snow Depth in   
Wind
Wind Speed 6 mph   
Max Wind Speed 10 mph   
Max Gust Speed mph   
Visibility 10 miles   
Events     

Key: T is trace of precipitation, MM is missing value
Source: NWS Daily Summary
Time(PST)TemperatureDew PointHumidity Pressure Visibility Wind DirectionWind SpeedGust SpeedPrecipitationEvents Conditions
12:33 AM 41.0°F 39.2°F 93% 29.63 in 10.0 miles SSW 5.8 mph - N/A   Mostly Cloudy
12:53 AM 39.2°F 39.2°F 100% 29.63 in 10.0 miles South 6.9 mph - N/A   Scattered Clouds
12:58 AM 38.5°F 37.8°F 97% 29.66 in 10.0 miles South 5.8 mph - N/A   Scattered Clouds
1:58 AM 38.7°F 38.5°F 99% 29.67 in 10.0 miles South 6.9 mph - N/A   Mostly Cloudy
2:38 AM 37.4°F 37.4°F 100% 29.67 in 10.0 miles South 8.1 mph - N/A   Scattered Clouds
2:58 AM 37.2°F 36.9°F 99% 29.69 in 10.0 miles South 9.2 mph - N/A   Mostly Cloudy
3:08 AM 39.2°F 37.4°F 93% 29.67 in 10.0 miles South 8.1 mph - N/A   Mostly Cloudy
3:18 AM 39.2°F 37.4°F 93% 29.67 in 10.0 miles South 8.1 mph - N/A   Overcast
3:58 AM 39.4°F 38.7°F 97% 29.70 in 10.0 miles South 8.1 mph - N/A   Scattered Clouds
4:23 AM 41.0°F 39.2°F 93% 29.69 in 10.0 miles SSW 9.2 mph - N/A   Mostly Cloudy
4:43 AM 39.2°F 39.2°F 100% 29.69 in 10.0 miles SSW 10.4 mph - N/A   Mostly Cloudy
4:58 AM 39.7°F 38.1°F 94% 29.71 in 10.0 miles South 9.2 mph - N/A   Mostly Cloudy
5:58 AM 40.1°F 37.9°F 92% 29.73 in 10.0 miles SSW 8.1 mph - N/A   Mostly Cloudy
6:09 AM 41.0°F 37.4°F 87% 29.71 in 10.0 miles SSW 9.2 mph - N/A   Mostly Cloudy
6:25 AM 41.0°F 37.4°F 87% 29.72 in 10.0 miles South 9.2 mph - N/A   Mostly Cloudy
6:58 AM 39.7°F 38.3°F 95% 29.75 in 10.0 miles South 8.1 mph - 0.00 in   Overcast
7:20 AM 41.0°F 37.4°F 87% 29.74 in 10.0 miles SSW 6.9 mph - N/A   Overcast
7:44 AM 39.2°F 37.4°F 93% 29.74 in 10.0 miles South 4.6 mph - N/A   Mostly Cloudy
7:49 AM 39.2°F 37.4°F 93% 29.75 in 10.0 miles South 2.3 mph - N/A   Mostly Cloudy
7:58 AM 38.3°F 37.6°F 97% 29.77 in 10.0 miles South 3.5 mph - 0.00 in   Mostly Cloudy
8:58 AM 40.1°F 39.2°F 97% 29.80 in 10.0 miles SSW 4.6 mph - N/A   Overcast
9:18 AM 41.0°F 39.2°F 93% 29.79 in 10.0 miles SSW 4.6 mph - N/A   Overcast
9:58 AM 41.9°F 38.7°F 88% 29.83 in 10.0 miles SSW 5.8 mph - N/A   Overcast
10:18 AM 42.8°F 39.2°F 87% 29.82 in 10.0 miles SSW 6.9 mph - N/A   Overcast
10:58 AM 43.3°F 39.0°F 85% 29.85 in 10.0 miles SSW 8.1 mph - N/A   Overcast
11:23 AM 42.8°F 39.2°F 87% 29.84 in 10.0 miles SW 8.1 mph - N/A   Overcast
11:58 AM 44.2°F 37.8°F 78% 29.86 in 10.0 miles SW 6.9 mph - N/A   Overcast
12:58 PM 44.4°F 37.8°F 77% 29.87 in 10.0 miles SW 6.9 mph - N/A   Overcast
1:13 PM 44.6°F 37.4°F 76% 29.85 in 10.0 miles WSW 4.6 mph - N/A   Overcast
1:58 PM 44.8°F 37.8°F 76% 29.88 in 10.0 miles WNW 4.6 mph - N/A   Overcast
2:28 PM 44.6°F 37.4°F 76% 29.87 in 10.0 miles NW 4.6 mph - N/A   Overcast
2:38 PM 44.6°F 39.2°F 81% 29.88 in 10.0 miles NNW 3.5 mph - N/A   Overcast
2:58 PM 45.0°F 38.5°F 78% 29.91 in 10.0 miles Calm Calm - N/A   Overcast
3:38 PM 46.4°F 37.4°F 71% 29.90 in 10.0 miles NNE 1.2 mph - N/A   Overcast
3:43 PM 46.4°F 37.4°F 71% 29.90 in 10.0 miles NNW 2.3 mph - N/A   Mostly Cloudy
3:58 PM 44.8°F 38.3°F 78% 29.92 in 10.0 miles NNW 2.3 mph - N/A   Mostly Cloudy
4:58 PM 37.0°F 35.6°F 95% 29.94 in 10.0 miles Calm Calm - N/A   Partly Cloudy
5:28 PM 35.6°F 35.6°F 100% 29.93 in 9.0 miles SSE 2.3 mph - N/A   Clear
5:38 PM 35.6°F 35.6°F 100% 29.93 in 10.0 miles South 2.3 mph - N/A   Partly Cloudy
5:48 PM 35.6°F 35.6°F 100% 29.93 in 10.0 miles South 3.5 mph - N/A   Mostly Cloudy
5:58 PM 36.1°F 36.0°F 99% 29.96 in 10.0 miles SSW 2.3 mph - N/A   Mostly Cloudy
6:08 PM 35.6°F 35.6°F 100% 29.94 in 10.0 miles South 2.3 mph - N/A   Overcast
6:58 PM 37.9°F 37.8°F 99% 29.97 in 10.0 miles SSE 2.3 mph - N/A   Overcast
7:43 PM 39.2°F 39.2°F 100% 29.97 in 10.0 miles South 1.2 mph - N/A   Overcast
7:58 PM 39.0°F 38.8°F 99% 30.00 in 10.0 miles Calm Calm - N/A   Overcast
8:43 PM 39.2°F 39.2°F 100% 29.99 in 10.0 miles South 2.3 mph - N/A   Overcast
8:54 PM 39.2°F 39.2°F 100% 29.99 in 10.0 miles SSE 2.3 mph - N/A   Overcast
8:58 PM 39.6°F 39.4°F 99% 30.02 in 10.0 miles SSE 1.2 mph - 0.00 in   Overcast
9:04 PM 39.2°F 39.2°F 100% 30.00 in 10.0 miles ESE 2.3 mph - N/A   Overcast
9:09 PM 39.2°F 39.2°F 100% 30.00 in 10.0 miles SE 2.3 mph - N/A   Overcast
9:58 PM 38.8°F 38.7°F 99% 30.02 in 10.0 miles SSE 2.3 mph - 0.00 in   Overcast
10:58 PM 39.0°F 38.7°F 99% 30.04 in 10.0 miles WSW 4.6 mph - N/A   Overcast
11:58 PM 38.8°F 38.5°F 99% 30.04 in 10.0 miles South 2.3 mph - N/A   Overcast
Moon Phase
Dec. 12 Dec. 13 Dec. 20 Dec. 28 Jan. 04
Sunrise:07:47 AM (PST) Moon Rise:06:56 AM (PST)12/12
Sunset:04:20 PM (PST) Moon Set:04:04 PM (PST)12/12

Copyright © 2014 The Weather Underground, Inc.